Location: Albuquerque Trailhead
(34.7934°N, 106.3736°W)
Time: 00:41:49
(UTC+00:00)

Meteor 1-21 Rocket - Pass Details

Date: 20 June 2021
Orbit: 834 x 906 km, 81.2° (Epoch: 01 August)

Event Time Altitude Azimuth Distance (km) Brightness Sun altitude
Exits shadow 06:10:25 68° 17° (NNE) 917 4.4 -30.2°
Drops below altitude 10° 06:15:22 10° 9° (N) 2,512 7.4 -30.5°
Sets 06:17:50 0° 9° (N) 3,465 8.4 -30.6°
